| time (UTC) | temp F | wind direction | speed knots | gust knots | rain 1hr in | rain 24hr in | rain mn in | humidity % | barometer mb |
| 20260505170057 | 68 | 219 | 7.0 | 13.9 | 0.00 | 0.00 | 0.00 | 63 | 1011.3 |
| 20260505164551 | 69 | 215 | 4.3 | 10.4 | 0.00 | 0.00 | 0.00 | 65 | 1011.9 |
| 20260505163052 | 68 | 178 | 6.1 | 15.6 | 0.00 | 0.00 | 0.00 | 65 | 1012.1 |
| 20260505161553 | 68 | 189 | 6.1 | 11.3 | 0.00 | 0.00 | 0.00 | 64 | 1012.0 |
| 20260505153103 | 67 | 208 | 6.1 | 10.4 | 0.00 | 0.00 | 0.00 | 64 | 1012.1 |
| 20260505151551 | 67 | 179 | 6.1 | 12.2 | 0.00 | 0.00 | 0.00 | 67 | 1012.1 |
| 20260505124554 | 62 | 174 | 3.5 | 7.0 | 0.00 | 0.00 | 0.00 | 71 | 1011.5 |
| 20260505123100 | 61 | 162 | 2.6 | 5.2 | 0.00 | 0.00 | 0.00 | 72 | 1011.5 |
| 20260505121553 | 60 | 168 | 1.7 | 5.2 | 0.00 | 0.00 | 0.00 | 72 | 1011.6 |
| 20260505120101 | 59 | 175 | 0.9 | 3.5 | 0.00 | 0.00 | 0.00 | 73 | 1011.5 |
| 20260505114552 | 58 | 178 | 0.9 | 3.5 | 0.00 | 0.00 | 0.00 | 74 | 1011.4 |
| 20260505113054 | 57 | 0 | 0.9 | 5.2 | 0.00 | 0.00 | 0.00 | 75 | 1011.1 |
| 20260505111555 | 57 | 192 | 1.7 | 4.3 | 0.00 | 0.00 | 0.00 | 76 | 1011.0 |
| 20260505101553 | 57 | 175 | 1.7 | 3.5 | 0.00 | 0.00 | 0.00 | 74 | 1010.6 |
| 20260505100058 | 57 | 173 | 1.7 | 6.1 | 0.00 | 0.00 | 0.00 | 73 | 1010.6 |
| 20260505094558 | 58 | 183 | 1.7 | 4.3 | 0.00 | 0.00 | 0.00 | 72 | 1010.6 |
| 20260505093052 | 58 | 173 | 1.7 | 6.1 | 0.00 | 0.00 | 0.00 | 72 | 1010.2 |
| 20260505091616 | 59 | 169 | 1.7 | 6.1 | 0.00 | 0.00 | 0.00 | 71 | 1010.2 |
| 20260505090123 | 59 | 184 | 1.7 | 4.3 | 0.00 | 0.00 | 0.00 | 71 | 1010.1 |
| 20260505084612 | 59 | 178 | 0.9 | 5.2 | 0.00 | 0.00 | 0.00 | 69 | 1010.3 |
| 20260505083106 | 60 | 200 | 1.7 | 6.1 | 0.00 | 0.00 | 0.00 | 68 | 1010.3 |
| 20260505081559 | 60 | 166 | 2.6 | 6.1 | 0.00 | 0.00 | 0.00 | 68 | 1010.0 |
| 20260505080059 | 61 | 202 | 2.6 | 8.7 | 0.00 | 0.00 | 0.00 | 66 | 1009.8 |
| 20260505074554 | 62 | 191 | 2.6 | 6.1 | 0.00 | 0.00 | 0.00 | 65 | 1009.8 |
| 20260505073059 | 63 | 182 | 3.5 | 7.8 | 0.00 | 0.00 | 0.00 | 63 | 1009.6 |
| 20260505071610 | 63 | 200 | 3.5 | 10.4 | 0.00 | 0.00 | 0.00 | 63 | 1009.6 |
| 20260505070055 | 63 | 199 | 3.5 | 8.7 | 0.00 | 0.00 | 0.00 | 63 | 1009.5 |
| 20260505064550 | 64 | 209 | 4.3 | 8.7 | 0.00 | 0.00 | 0.00 | 62 | 1009.6 |
| 20260505063055 | 64 | 182 | 3.5 | 10.4 | 0.00 | 0.00 | 0.00 | 62 | 1009.7 |
| 20260505061557 | 64 | 211 | 3.5 | 7.8 | 0.00 | 0.00 | 0.00 | 61 | 1010.0 |
| 20260505054552 | 63 | 168 | 2.6 | 6.1 | 0.00 | 0.00 | 0.00 | 64 | 1010.0 |
| 20260505053053 | 63 | 184 | 1.7 | 5.2 | 0.00 | 0.00 | 0.00 | 62 | 1010.2 |
| 20260505051553 | 65 | 163 | 2.6 | 7.0 | 0.00 | 0.00 | 0.00 | 60 | 1010.2 |
| 20260505041555 | 67 | 197 | 3.5 | 7.8 | 0.00 | 0.00 | 0.00 | 57 | 1009.6 |
| 20260505040050 | 67 | 208 | 4.3 | 10.4 | 0.00 | 0.00 | 0.00 | 57 | 1009.6 |
| 20260505034549 | 67 | 219 | 3.5 | 8.7 | 0.00 | 0.00 | 0.00 | 56 | 1009.4 |
| 20260505033048 | 68 | 202 | 5.2 | 9.6 | 0.00 | 0.00 | 0.00 | 55 | 1009.4 |
| 20260505031551 | 68 | 200 | 4.3 | 9.6 | 0.00 | 0.00 | 0.00 | 55 | 1009.2 |
| 20260505030109 | 68 | 201 | 4.3 | 9.6 | 0.00 | 0.00 | 0.00 | 54 | 1009.0 |
| 20260505024553 | 69 | 207 | 6.1 | 13.0 | 0.00 | 0.00 | 0.00 | 53 | 1008.8 |
| 20260505023055 | 68 | 155 | 3.5 | 8.7 | 0.00 | 0.00 | 0.00 | 54 | 1008.5 |
| 20260505021554 | 69 | 222 | 5.2 | 12.2 | 0.00 | 0.00 | 0.00 | 53 | 1008.4 |
| 20260505020100 | 69 | 153 | 6.1 | 12.2 | 0.00 | 0.00 | 0.00 | 52 | 1008.1 |
| 20260505014607 | 71 | 205 | 5.2 | 12.2 | 0.00 | 0.00 | 0.00 | 49 | 1008.0 |
| 20260505013056 | 71 | 192 | 4.3 | 12.2 | 0.00 | 0.00 | 0.00 | 49 | 1008.0 |
| 20260505011555 | 71 | 211 | 6.1 | 11.3 | 0.00 | 0.00 | 0.00 | 49 | 1008.1 |
| 20260505010058 | 72 | 177 | 5.2 | 10.4 | 0.00 | 0.00 | 0.00 | 48 | 1008.3 |
| 20260505004555 | 71 | 184 | 5.2 | 10.4 | 0.00 | 0.00 | 0.00 | 50 | 1008.4 |
| 20260505003058 | 72 | 202 | 4.3 | 9.6 | 0.00 | 0.00 | 0.00 | 50 | 1008.3 |
| 20260505001549 | 73 | 189 | 3.5 | 7.0 | 0.00 | 0.00 | 0.00 | 50 | 1008.5 |
| 20260505000058 | 74 | 201 | 2.6 | 7.0 | 0.00 | 0.00 | 0.00 | 48 | 1008.8 |
| 20260504234551 | 75 | 171 | 5.2 | 12.2 | 0.00 | 0.00 | 0.00 | 46 | 1009.0 |
| 20260504233051 | 75 | 213 | 5.2 | 11.3 | 0.00 | 0.00 | 0.00 | 46 | 1009.0 |
| 20260504231552 | 76 | 200 | 4.3 | 10.4 | 0.00 | 0.00 | 0.00 | 45 | 1009.1 |
| 20260504230053 | 77 | 215 | 6.1 | 13.9 | 0.00 | 0.00 | 0.00 | 43 | 1009.2 |
| 20260504224555 | 76 | 217 | 6.1 | 13.0 | 0.00 | 0.00 | 0.00 | 44 | 1009.4 |
| 20260504223104 | 76 | 209 | 7.8 | 19.1 | 0.00 | 0.00 | 0.00 | 44 | 1009.4 |
| 20260504221551 | 76 | 201 | 5.2 | 13.0 | 0.00 | 0.00 | 0.00 | 46 | 1009.4 |
| 20260504220050 | 77 | 188 | 3.5 | 12.2 | 0.00 | 0.00 | 0.00 | 48 | 1009.5 |
| 20260504214551 | 76 | 211 | 5.2 | 7.8 | 0.00 | 0.00 | 0.00 | 46 | 1009.3 |
| 20260504213050 | 76 | 247 | 4.3 | 11.3 | 0.00 | 0.00 | 0.00 | 44 | 1009.4 |
| 20260504211634 | 76 | 213 | 3.5 | 14.8 | 0.00 | 0.00 | 0.00 | 48 | 1009.3 |
| 20260504210055 | 77 | 211 | 7.8 | 13.9 | 0.00 | 0.00 | 0.00 | 44 | 1009.3 |
| 20260504204551 | 76 | 202 | 5.2 | 17.4 | 0.00 | 0.00 | 0.00 | 46 | 1009.3 |
| 20260504203053 | 76 | 221 | 7.8 | 14.8 | 0.00 | 0.00 | 0.00 | 45 | 1009.4 |
| 20260504201604 | 77 | 223 | 5.2 | 13.9 | 0.00 | 0.00 | 0.00 | 46 | 1009.6 |
| 20260504200059 | 78 | 169 | 7.8 | 14.8 | 0.00 | 0.00 | 0.00 | 47 | 1010.1 |
| 20260504194556 | 77 | 207 | 8.7 | 16.5 | 0.00 | 0.00 | 0.00 | 47 | 1010.3 |
| 20260504193105 | 77 | 207 | 6.1 | 13.9 | 0.00 | 0.00 | 0.00 | 48 | 1010.5 |
| 20260504191609 | 76 | 167 | 7.0 | 12.2 | 0.00 | 0.00 | 0.00 | 49 | 1010.7 |
| 20260504190107 | 76 | 223 | 7.8 | 14.8 | 0.00 | 0.00 | 0.00 | 53 | 1010.9 |
| 20260504184553 | 76 | 196 | 5.2 | 11.3 | 0.00 | 0.00 | 0.00 | 52 | 1011.0 |
| 20260504183052 | 74 | 202 | 7.8 | 14.8 | 0.00 | 0.00 | 0.00 | 50 | 1011.0 |
| 20260504181559 | 75 | 192 | 6.1 | 13.0 | 0.00 | 0.00 | 0.00 | 54 | 1011.2 |
| 20260504180053 | 74 | 208 | 6.1 | 14.8 | 0.00 | 0.00 | 0.00 | 55 | 1011.2 |
| 20260504174552 | 73 | 200 | 7.8 | 17.4 | 0.00 | 0.00 | 0.00 | 53 | 1011.6 |
| 20260504173055 | 72 | 190 | 7.0 | 13.0 | 0.00 | 0.00 | 0.00 | 57 | 1011.7 |
| 20260504171554 | 71 | 130 | 7.0 | 13.0 | 0.00 | 0.00 | 0.00 | 57 | 1011.7 |